Wind_Speed
44 45 45 46 47 48 49 48 48 48 49 50 50 50 50 50 50 50 50 50 50 49 50 49 50 49 49 48 49 48 48 48 48 47 46 44 44 45 44 44 43 43 42
43 44 46 46 47 48 49 48 48 49 50 49 50 50 50 50 50 51 51 50 49 48 48 48 47 48 48 48 48 48 47 47 47 47 45 45 44 44 44 43 42 42 43
42 43 45 47 48 49 50 49 48 48 49 49 49 49 49 49 49 50 49 48 48 47 47 46 45 46 46 45 46 47 47 46 46 45 44 44 44 44 44 43 42 43 43
40 42 44 46 48 49 49 48 48 47 47 47 47 48 49 49 48 47 46 47 47 47 46 45 45 45 45 45 46 45 44 44 43 42 43 43 43 43 44 44 44 44 43
39 40 42 44 46 46 46 47 47 46 46 46 46 47 47 47 46 46 46 47 47 46 46 46 46 45 45 45 44 44 44 43 42 42 42 42 42 42 43 44 44 45 44
37 39 41 43 44 45 45 45 46 45 46 46 46 45 45 45 46 47 47 47 46 45 45 45 44 44 44 44 44 43 43 43 42 42 42 42 41 42 42 43 44 44 44
36 37 39 40 41 42 43 43 44 44 44 44 45 45 45 45 45 46 47 46 45 45 45 43 43 43 43 44 44 44 44 44 43 43 43 41 41 41 41 42 42 43 43
35 37 38 38 38 40 40 41 42 42 42 43 44 45 45 45 46 46 46 45 45 44 44 44 43 43 44 44 44 44 44 44 43 43 42 41 41 41 41 42 42 41 41
36 36 37 37 38 38 38 39 40 41 42 43 44 44 44 44 44 44 44 43 42 42 42 41 42 42 41 42 42 42 41 41 41 41 41 41 40 40 40 41 40 41 40
35 34 36 36 37 37 37 38 40 41 42 42 42 42 41 41 41 41 40 40 41 40 40 40 39 39 39 39 39 40 39 39 39 40 40 40 39 39 40 40 40 40 40
35 34 34 35 35 35 36 37 38 39 40 40 40 40 40 39 38 38 38 38 39 39 39 39 38 37 37 38 38 38 37 37 38 38 39 39 38 37 37 38 39 39 39
34 34 33 33 33 33 34 34 35 35 36 36 37 37 37 37 36 36 37 37 37 37 37 37 37 37 37 37 37 37 37 37 37 37 37 37 36 36 36 37 38 38 38
32 31 31 31 32 33 32 32 32 33 33 33 34 35 35 35 34 35 36 36 37 36 35 35 35 35 35 36 36 37 37 37 38 37 38 37 37 37 37 37 37 37 37
30 30 31 31 31 31 31 31 31 32 32 32 31 31 31 32 32 34 35 35 36 35 34 34 34 34 34 34 35 35 36 36 36 37 37 37 38 37 37 36 36 36 36
29 30 31 31 32 32 32 31 30 29 29 29 29 29 29 29 30 31 32 33 34 34 33 32 32 33 34 33 34 34 35 35 35 36 36 35 34 35 35 36 35 35 35
29 30 31 31 30 30 30 30 30 29 29 29 28 28 28 29 30 30 30 30 30 30 30 31 31 32 33 33 33 33 34 34 35 34 34 34 34 34 35 35 35 34 34
29 29 29 29 29 30 30 29 28 28 29 29 28 28 28 28 28 28 28 27 27 27 27 28 29 29 30 31 31 32 33 33 33 33 33 33 34 34 33 33 33 32 33
29 29 29 29 29 30 29 28 27 27 27 27 28 28 28 28 27 27 26 26 25 26 26 26 27 27 28 29 30 30 30 30 29 30 30 30 30 31 31 32 32 32 32
28 29 28 28 29 29 28 28 27 27 26 26 26 26 27 27 26 26 25 25 25 25 26 26 26 27 28 28 29 29 29 29 29 29 29 29 29 29 30 30 30 31 31
28 28 27 27 27 27 26 26 26 26 25 24 24 24 25 25 25 25 25 25 25 25 26 27 27 28 28 28 28 29 29 29 29 29 29 29 29 29 29 30 30 30 30
27 27 27 27 27 26 25 25 25 24 24 24 24 24 24 24 24 24 24 24 25 25 26 26 27 27 27 27 28 29 28 28 29 29 28 28 28 28 28 28 29 29 29
27 27 27 26 26 25 25 24 23 23 23 23 24 24 23 23 24 24 24 24 25 25 25 26 26 27 27 27 28 28 28 28 28 28 28 28 28 29 28 28 28 28 28
27 26 26 26 25 24 24 23 23 22 22 22 22 23 23 23 23 23 24 24 24 24 25 26 26 27 27 27 28 28 28 28 28 27 27 28 28 28 27 27 26 26 26
27 26 26 25 24 24 23 23 23 23 22 21 21 21 22 22 23 23 24 24 24 24 25 25 25 25 26 26 27 27 27 27 27 28 27 27 27 26 27 26 26 26 26
28 27 26 25 24 24 23 23 23 23 23 22 22 22 22 23 23 23 23 23 23 24 24 24 25 24 25 25 25 26 26 26 26 26 26 26 26 26 26 26 25 24 24
27 26 25 25 24 24 24 23 23 23 22 22 22 22 22 23 23 22 23 23 23 23 23 23 23 23 24 24 24 24 24 24 24 24 24 24 24 24 25 24 24 23 23
Wind_Direction
254 256 259 260 263 266 267 267 268 269 271 272 271 272 273 274 275 275 275 274 273 272 272 272 272 272 273 273 273 274 276 276 276 276 276 275 275 276 278 278 278 278 279
256 257 259 260 263 265 266 268 269 270 271 271 272 272 272 274 275 275 275 274 273 272 271 271 270 271 272 272 272 273 274 275 276 275 274 274 275 276 276 278 277 278 278
259 260 261 263 264 265 267 269 270 271 271 270 272 272 273 274 275 275 274 273 272 271 271 270 270 271 272 272 272 273 273 273 274 274 274 275 275 276 276 277 277 277 277
265 264 265 266 266 268 269 270 271 272 272 272 272 273 274 274 274 274 273 272 271 270 270 269 271 272 272 272 272 272 272 272 273 273 275 277 277 277 276 276 276 276 276
268 267 268 268 268 269 270 271 271 271 271 272 272 272 273 273 273 272 272 272 271 269 268 269 271 271 271 271 272 271 271 272 272 273 275 277 278 278 277 276 276 276 276
271 271 270 270 270 271 271 271 271 270 270 271 271 271 271 272 272 272 272 271 269 269 269 270 271 270 269 270 271 271 272 272 273 274 276 277 278 278 277 277 278 277 276
274 273 273 273 273 272 272 271 271 272 271 271 271 271 271 271 272 271 270 269 268 269 270 271 270 270 270 269 270 271 271 271 273 275 275 277 277 278 278 278 279 279 279
275 274 274 274 274 274 274 274 273 273 271 270 272 273 272 271 271 271 269 268 268 270 271 270 270 270 270 270 269 270 271 270 272 273 275 276 276 277 279 280 279 279 279
278 278 276 276 276 276 276 275 274 272 272 272 273 273 273 272 271 269 268 269 269 270 270 270 270 269 268 269 269 270 270 270 270 272 274 276 276 278 280 280 279 279 279
280 280 280 278 277 276 275 275 274 273 273 273 273 273 273 272 270 268 268 268 268 268 269 268 269 269 267 268 269 269 270 270 269 270 272 274 276 279 281 281 280 280 280
283 284 282 282 281 280 278 276 276 275 274 274 273 273 272 271 269 268 268 268 268 267 268 267 267 268 268 268 269 270 269 270 270 271 272 273 275 277 279 281 282 282 282
284 285 284 284 284 283 281 280 277 276 275 274 273 272 270 270 270 270 270 270 269 268 267 267 268 267 267 268 269 270 269 269 271 273 273 273 273 276 279 281 282 282 282
284 285 284 285 286 285 284 282 280 279 277 275 274 273 272 270 270 270 271 271 269 268 266 265 265 265 266 267 268 270 271 271 272 273 274 274 274 276 277 279 280 281 282
285 286 286 287 289 288 287 287 285 283 281 279 277 275 273 271 272 272 271 270 269 267 265 264 265 265 266 267 269 270 272 273 275 276 276 275 275 275 276 278 280 282 281
286 286 287 288 290 289 288 288 286 284 281 279 278 276 275 275 275 274 272 271 268 265 263 263 265 267 267 269 269 270 272 275 276 276 277 277 277 277 277 279 280 281 282
285 286 286 288 289 289 288 288 287 285 282 279 277 276 276 276 276 276 275 273 269 265 264 264 266 267 268 269 270 271 273 275 277 277 277 277 277 279 280 280 280 281 283
288 288 287 288 289 289 289 287 285 284 282 280 278 277 276 275 276 274 272 271 269 267 266 266 268 268 269 269 270 272 274 276 277 276 276 277 278 279 280 281 280 280 283
289 291 291 290 290 290 290 287 285 283 282 280 278 277 275 274 275 274 271 269 269 268 267 267 268 270 270 271 272 274 275 276 277 277 277 279 280 281 281 282 282 282 283
292 292 291 290 290 290 289 287 285 284 282 280 278 277 275 274 275 274 271 269 269 270 268 268 268 269 269 271 272 273 276 278 278 279 279 280 281 283 283 284 285 285 285
294 293 292 291 290 290 289 288 286 284 282 281 281 280 277 277 277 275 274 272 270 270 270 269 269 270 270 270 271 273 276 278 278 280 281 281 282 284 284 284 285 286 287
294 294 293 291 291 291 291 291 289 285 283 282 281 282 280 278 277 276 277 276 273 272 271 271 271 272 271 271 271 273 276 277 278 279 280 282 283 284 285 286 286 287 288
295 295 294 293 290 290 290 290 290 287 284 282 281 282 282 280 277 275 276 277 275 273 273 273 273 272 272 274 275 275 275 276 277 278 279 281 282 282 283 285 287 286 286
295 295 294 294 291 290 290 289 289 289 288 285 284 283 281 280 277 277 278 279 277 275 275 275 275 275 275 277 277 276 276 276 277 278 279 281 283 284 283 285 286 286 287
293 293 294 294 293 291 290 288 288 288 287 286 286 285 284 283 281 279 278 278 278 277 276 277 276 275 275 276 277 277 276 276 277 278 280 281 282 283 283 283 284 287 288
293 292 292 292 291 291 290 288 287 286 285 285 285 285 285 284 284 283 281 279 279 279 278 277 277 275 275 275 276 276 277 279 280 280 280 279 280 281 282 283 286 288 287
293 292 291 291 291 290 289 288 287 286 286 285 285 283 283 284 284 283 282 282 281 281 279 277 277 277 276 276 276 277 277 279 281 280 280 281 281 282 284 287 288 288 286
Height
5658 5660 5661 5663 5663 5664 5663 5663 5663 5664 5664 5663 5663 5663 5663 5662 5662 5661 5661 5660 5660 5660 5660 5660 5660 5660 5660 5660 5660 5659 5659 5658 5659 5660 5659 5659 5658 5658 5657 5656 5655 5654 5652
5646 5648 5649 5650 5651 5652 5651 5651 5650 5650 5650 5649 5649 5649 5649 5649 5648 5647 5647 5646 5646 5646 5646 5646 5647 5647 5647 5647 5647 5646 5646 5646 5646 5646 5646 5646 5645 5645 5644 5643 5643 5642 5640
5635 5636 5637 5638 5639 5639 5638 5638 5637 5637 5636 5636 5636 5636 5635 5635 5634 5633 5633 5632 5632 5633 5633 5633 5634 5634 5635 5634 5634 5634 5633 5633 5633 5633 5633 5633 5633 5632 5632 5631 5630 5629 5628
5625 5626 5626 5626 5626 5626 5626 5625 5625 5624 5623 5623 5622 5622 5621 5621 5620 5619 5619 5619 5619 5619 5620 5620 5621 5621 5622 5622 5621 5621 5621 5621 5620 5620 5621 5621 5620 5620 5619 5618 5618 5617 5616
5615 5615 5615 5614 5614 5613 5613 5612 5612 5611 5610 5610 5609 5609 5608 5607 5607 5606 5606 5606 5606 5606 5607 5607 5608 5608 5608 5609 5609 5609 5609 5609 5608 5608 5609 5608 5608 5607 5607 5606 5605 5604 5603
5605 5605 5604 5603 5602 5601 5601 5600 5599 5599 5598 5597 5596 5596 5595 5594 5594 5593 5593 5593 5593 5593 5594 5594 5595 5595 5596 5596 5596 5596 5596 5596 5596 5596 5597 5597 5597 5596 5595 5593 5593 5592 5592
5595 5595 5594 5592 5591 5590 5589 5588 5587 5586 5585 5584 5584 5583 5583 5582 5581 5580 5579 5580 5580 5581 5581 5582 5582 5583 5583 5583 5584 5583 5583 5583 5584 5585 5585 5585 5585 5585 5583 5583 5581 5580 5580
5586 5584 5583 5581 5580 5579 5577 5576 5575 5573 5573 5572 5572 5571 5570 5569 5568 5567 5566 5566 5567 5568 5569 5569 5570 5570 5570 5571 5571 5571 5571 5572 5572 5573 5573 5574 5573 5572 5572 5571 5570 5569 5568
5576 5574 5572 5571 5569 5567 5566 5564 5562 5561 5561 5560 5559 5558 5557 5556 5555 5554 5554 5554 5555 5555 5556 5556 5557 5558 5558 5558 5559 5560 5560 5560 5560 5561 5562 5562 5561 5561 5560 5559 5558 5557 5557
5566 5565 5562 5560 5558 5556 5554 5553 5551 5550 5549 5547 5546 5545 5544 5543 5542 5542 5542 5542 5543 5544 5544 5544 5545 5546 5546 5546 5547 5548 5549 5550 5550 5551 5551 5551 5551 5550 5549 5548 5547 5546 5545
5556 5554 5552 5550 5548 5546 5543 5541 5539 5538 5537 5535 5535 5534 5532 5532 5531 5530 5530 5530 5531 5532 5533 5534 5534 5535 5535 5536 5536 5537 5538 5539 5539 5539 5540 5540 5540 5539 5538 5537 5536 5535 5534
5546 5544 5542 5540 5538 5536 5533 5531 5528 5527 5525 5524 5523 5522 5521 5520 5520 5520 5519 5519 5520 5521 5522 5523 5524 5524 5525 5526 5526 5527 5527 5528 5528 5529 5529 5529 5529 5529 5528 5527 5525 5524 5523
5537 5535 5533 5530 5528 5526 5523 5521 5518 5516 5515 5513 5512 5511 5511 5510 5510 5509 5509 5509 5509 5510 5511 5512 5514 5514 5515 5515 5516 5517 5517 5518 5518 5518 5519 5519 5518 5518 5517 5516 5515 5514 5513
5528 5526 5524 5521 5519 5516 5513 5511 5509 5507 5505 5503 5502 5502 5501 5501 5500 5499 5499 5499 5499 5500 5501 5502 5503 5504 5505 5506 5507 5507 5508 5508 5508 5508 5508 5508 5507 5507 5506 5506 5505 5504 5503
5519 5517 5515 5513 5510 5508 5505 5502 5500 5498 5496 5495 5494 5493 5493 5492 5491 5490 5490 5490 5490 5490 5491 5493 5494 5495 5496 5497 5497 5498 5498 5498 5498 5498 5498 5498 5497 5497 5496 5496 5495 5494 5493
5511 5509 5506 5504 5502 5499 5497 5495 5491 5489 5488 5486 5485 5484 5484 5483 5482 5482 5481 5481 5480 5481 5482 5483 5485 5486 5487 5488 5488 5489 5489 5489 5489 5488 5488 5488 5488 5487 5486 5486 5485 5484 5483
5502 5500 5498 5495 5493 5491 5488 5486 5484 5482 5479 5478 5477 5476 5475 5474 5474 5473 5472 5472 5472 5472 5473 5474 5476 5477 5478 5478 5479 5479 5480 5479 5479 5479 5479 5478 5478 5477 5476 5476 5475 5474 5473
5493 5491 5488 5486 5484 5482 5479 5477 5476 5474 5472 5470 5468 5467 5466 5466 5465 5465 5464 5464 5464 5464 5465 5466 5467 5468 5469 5469 5470 5470 5470 5470 5470 5470 5470 5469 5469 5468 5467 5467 5466 5465 5464
5485 5482 5480 5477 5475 5473 5471 5469 5467 5465 5464 5462 5461 5459 5458 5457 5457 5457 5456 5457 5457 5457 5458 5458 5459 5459 5460 5461 5461 5461 5462 5462 5462 5461 5461 5461 5460 5460 5459 5458 5457 5456 5455
5477 5474 5472 5470 5467 5465 5463 5461 5459 5457 5456 5454 5453 5452 5450 5450 5449 5449 5449 5449 5449 5450 5450 5450 5451 5451 5452 5452 5452 5453 5453 5453 5453 5453 5453 5452 5452 5451 5450 5449 5448 5447 5445
5470 5467 5464 5462 5459 5457 5455 5453 5451 5449 5448 5447 5446 5444 5443 5443 5443 5442 5442 5442 5442 5442 5442 5442 5443 5443 5443 5444 5444 5444 5445 5445 5444 5444 5444 5444 5443 5442 5441 5440 5439 5438 5436
5462 5459 5457 5454 5451 5449 5447 5446 5444 5443 5441 5440 5439 5438 5437 5436 5436 5435 5435 5435 5435 5435 5435 5435 5435 5435 5435 5436 5436 5436 5436 5436 5436 5436 5435 5435 5435 5434 5433 5432 5431 5429 5428
5454 5452 5449 5446 5444 5442 5440 5438 5437 5435 5434 5433 5432 5431 5430 5429 5429 5428 5428 5428 5427 5427 5427 5427 5427 5427 5427 5427 5428 5428 5428 5428 5428 5427 5427 5427 5426 5425 5424 5423 5422 5421 5420
5446 5444 5441 5439 5437 5435 5433 5431 5430 5429 5427 5426 5425 5424 5424 5423 5422 5421 5421 5421 5420 5419 5419 5419 5419 5419 5419 5420 5420 5420 5420 5419 5419 5419 5419 5418 5417 5417 5416 5415 5414 5413 5412
5438 5436 5433 5431 5429 5428 5426 5424 5423 5422 5421 5420 5419 5418 5417 5416 5416 5415 5414 5413 5412 5412 5412 5412 5412 5412 5412 5412 5412 5412 5412 5412 5411 5411 5411 5410 5410 5409 5408 5407 5406 5405 5404
5430 5428 5426 5424 5422 5420 5419 5418 5416 5415 5414 5413 5412 5411 5411 5410 5409 5408 5407 5406 5406 5405 5405 5405 5405 5405 5405 5405 5405 5405 5404 5404 5404 5403 5403 5402 5402 5402 5401 5400 5399 5398 5397